Location: Caoba
(9.7667°N, 67.4833°W)
Time: 19:19:30
(UTC+00:00)

GOES 2 Rocket - Pass Details

Date: 09 December 2024
Orbit: 569 x 1662 km, 28.4° (Epoch: 14 January)

Event Time Altitude Azimuth Distance (km) Brightness Sun altitude
Rises 00:50:57 0° 236° (SW) 4,617 8.4 -37.9°
Reaches altitude 10° 00:54:23 10° 234° (SW) 3,500 7.5 -38.7°
Enters shadow 01:00:43 48° 218° (SW) 1,572 5.2 -40.2°
